Temperature
20 20 21 20 18 18 20 20 20 20 20 20 20 19 19 18 18 18 17 17 18 18 17 17 17 17 17 17 17 17 17 17 17 17 17 17 17 17 17 17 17 17 17 17 17 17 17 17 17
21 21 21 20 18 19 20 20 20 20 21 20 20 20 19 18 17 17 17 17 18 18 17 17 17 17 17 17 17 17 17 17 17 17 17 17 16 16 16 16 16 16 17 17 17 17 17 17 17
21 21 21 18 19 19 20 20 20 21 21 21 20 19 19 18 17 17 17 17 18 18 18 17 17 17 17 17 17 17 17 17 17 16 16 16 16 16 16 16 16 16 16 16 17 17 17 17 17
21 21 20 18 20 20 20 20 21 21 21 20 19 19 18 18 18 18 17 18 18 18 17 17 17 17 17 17 17 17 16 16 16 16 16 16 16 16 16 16 16 16 16 16 16 17 17 17 17
21 21 19 19 20 20 20 21 21 20 20 19 19 18 18 18 18 18 18 18 18 18 17 17 17 17 17 17 17 16 16 16 16 16 16 16 16 15 15 16 16 16 16 16 16 16 17 17 17
21 19 18 19 20 20 20 21 20 19 19 19 19 18 17 18 18 18 18 18 18 18 17 17 17 17 17 17 16 16 16 16 16 16 16 15 15 15 15 15 15 15 16 16 16 16 16 17 17
21 18 19 19 20 20 21 21 20 20 19 19 19 18 17 18 18 18 18 18 18 18 17 17 17 17 17 16 16 16 16 16 16 16 16 15 15 15 15 15 15 15 15 16 16 16 16 16 17
21 18 19 19 20 20 21 21 21 20 20 20 19 18 18 18 18 18 18 18 18 18 18 17 17 17 17 16 16 16 16 16 16 16 16 15 15 15 15 15 15 15 15 15 16 16 16 16 16
22 18 18 19 19 20 21 21 21 20 20 20 19 19 19 18 18 18 18 18 18 18 18 17 17 17 17 17 16 16 16 16 16 16 16 16 15 15 15 15 15 15 15 15 16 16 16 16 16
21 18 19 20 19 19 20 21 21 20 19 19 19 19 19 19 18 18 18 18 18 18 18 18 17 17 17 17 16 16 16 16 16 16 16 16 16 15 15 15 15 15 15 15 15 16 16 16 16
20 19 19 20 20 21 20 21 20 20 18 19 19 19 19 19 19 19 18 18 18 18 18 18 18 17 17 17 17 16 16 16 16 16 16 16 16 15 15 15 15 15 15 15 16 16 16 16 16
20 20 20 20 21 21 21 21 20 20 20 20 20 19 19 19 19 19 19 19 18 18 18 18 18 17 17 17 17 16 16 16 16 16 16 16 16 16 15 15 15 15 15 16 16 16 16 16 16
20 20 21 20 21 21 21 20 20 20 20 20 20 20 19 19 19 19 19 19 19 19 18 18 18 17 17 17 17 17 16 16 16 16 16 16 16 15 15 15 15 15 15 15 16 16 16 16 16
21 21 21 20 20 21 20 20 20 19 20 20 20 20 20 20 20 19 19 19 19 19 18 18 18 18 17 17 17 17 16 16 16 16 16 16 16 15 15 15 15 15 15 15 16 16 16 16 16
21 20 20 20 20 21 20 19 19 20 20 20 20 20 20 20 20 20 20 19 19 19 18 18 18 18 17 17 17 17 16 16 16 16 16 16 15 15 15 15 15 15 15 15 16 16 16 16 16
20 19 19 19 20 20 20 18 19 20 20 20 20 20 20 20 20 20 20 19 19 19 19 18 18 18 17 17 17 17 16 16 16 16 16 15 15 15 15 15 15 15 15 16 16 16 16 16 16
19 18 18 19 19 20 19 18 19 20 20 20 20 20 20 20 20 20 20 20 19 19 19 18 18 18 17 17 17 17 16 16 16 16 16 15 15 15 15 15 15 15 15 16 16 16 16 16 16
18 18 19 19 19 19 19 18 19 19 20 20 20 20 20 20 20 20 20 20 19 19 19 18 18 18 17 17 17 17 16 16 16 16 16 15 15 15 15 15 15 15 15 15 16 16 16 16 16
19 19 19 19 19 19 18 18 18 19 19 19 20 20 20 20 20 20 20 20 20 19 19 19 18 18 18 17 17 17 16 16 16 16 16 15 15 15 15 15 15 15 15 15 15 16 16 16 16
19 19 18 18 19 19 18 18 18 18 19 19 19 20 20 20 20 20 20 20 20 19 19 19 18 18 18 17 17 17 16 16 16 16 16 16 15 15 15 15 15 15 15 15 15 15 16 16 16
19 19 18 18 18 18 18 18 18 18 19 19 19 20 20 20 20 20 20 20 20 19 19 19 18 18 18 17 17 17 16 16 16 16 16 16 15 15 15 15 15 15 15 15 15 15 15 16 15
19 20 19 19 17 17 18 17 17 17 18 18 19 19 20 20 20 20 20 20 20 20 19 19 18 18 18 18 17 17 17 16 16 16 16 16 15 15 15 15 15 15 15 15 15 15 15 15 15
19 20 19 18 17 17 17 17 17 17 17 18 18 19 20 20 20 20 20 20 20 20 19 19 19 18 18 18 17 17 17 17 16 16 16 16 15 15 15 15 15 15 15 15 15 15 15 15 15
20 19 18 17 16 16 17 17 17 17 18 19 19 19 20 20 20 20 20 20 20 20 19 19 19 18 18 18 18 17 17 17 17 16 16 16 16 15 15 15 15 15 15 15 15 15 15 15 15
19 16 16 16 16 16 17 17 17 18 19 20 20 20 20 20 20 20 20 20 20 20 19 19 19 19 18 18 18 17 17 17 17 17 16 16 16 16 15 15 15 15 15 15 15 15 15 15 15
18 17 16 16 16 16 17 17 18 20 20 21 21 20 20 20 20 20 20 20 20 20 20 19 19 19 18 18 18 18 17 17 17 17 16 16 16 16 15 15 15 15 15 15 15 15 15 15 15
18 17 16 16 17 16 16 17 19 19 19 20 20 20 20 20 20 21 21 20 20 20 20 19 19 19 18 18 18 18 17 17 17 17 17 16 16 16 16 15 15 15 15 15 15 15 15 15 14
19 17 16 16 16 16 17 18 18 19 19 19 19 20 20 20 20 20 20 21 21 20 20 20 19 19 19 18 18 18 17 17 17 17 17 17 16 16 16 15 15 15 15 15 15 15 15 15 14
18 18 17 15 15 16 16 17 19 19 19 19 20 20 20 20 20 20 20 21 21 20 20 20 19 19 19 18 18 18 17 17 17 17 17 17 16 16 16 16 15 15 15 15 15 15 14 14 14
18 18 16 16 16 16 16 17 20 19 19 20 20 20 21 21 21 21 21 20 20 20 20 20 19 19 19 18 18 18 18 17 17 17 17 17 16 16 16 16 15 15 15 15 15 15 14 14 14
Wind_Speed
6 4 1 3 5 5 3 1 2 3 4 5 9 9 9 7 6 7 3 8 9 7 8 10 12 12 13 13 13 13 13 13 13 12 12 12 11 11 11 10 10 10 10 9 9 8 7 7 6
3 1 3 4 4 3 2 2 4 4 7 6 8 9 8 7 7 8 5 8 9 9 9 10 12 13 13 13 13 13 13 12 12 12 11 11 11 10 10 9 9 8 8 8 7 6 6 5 5
3 1 3 4 3 3 3 2 5 6 6 4 5 6 5 5 5 5 8 10 10 9 10 12 13 14 14 13 13 13 12 11 11 11 10 10 9 9 9 8 8 7 7 6 5 5 5 4 4
2 4 4 5 4 1 4 5 6 6 6 6 6 6 4 4 4 9 12 11 10 8 10 13 14 14 14 13 13 12 11 10 10 9 9 8 8 7 7 7 6 6 5 4 4 3 3 3 3
3 4 5 4 2 2 2 4 4 5 4 6 8 7 5 5 12 14 12 11 10 7 9 12 14 14 13 12 12 11 9 9 8 8 7 6 6 6 6 6 5 5 4 3 3 2 2 2 3
4 4 4 2 2 2 2 5 8 10 9 8 9 7 4 6 11 11 11 10 9 8 9 11 13 13 12 11 10 9 8 8 7 6 6 5 4 4 4 5 4 4 3 3 2 2 2 2 3
4 4 3 2 3 2 3 4 6 9 8 5 6 6 5 6 9 11 11 10 8 9 8 8 10 11 11 10 9 8 7 6 5 5 4 4 3 3 3 3 3 3 3 2 2 2 2 3 4
4 4 3 2 3 2 2 3 6 8 7 8 5 7 7 8 9 10 9 8 7 6 6 6 8 8 8 8 7 7 6 4 3 3 2 2 2 1 1 1 2 2 2 3 3 3 4 5 5
4 4 2 3 4 2 2 6 4 5 7 4 4 7 10 12 10 9 7 5 6 6 5 5 6 6 7 6 5 5 3 2 2 3 2 1 0 1 2 2 1 3 3 4 5 5 5 5 5
4 3 1 2 3 4 3 6 5 5 8 7 9 8 10 10 10 9 9 8 7 7 6 5 5 6 6 5 4 2 1 2 3 3 4 3 1 0 1 3 3 4 5 5 5 5 5 5 5
3 4 2 2 3 5 5 3 3 8 7 10 14 13 11 10 9 8 7 7 7 8 8 7 6 6 5 3 4 2 1 2 4 4 4 5 5 3 3 4 5 6 6 6 7 6 5 4 3
3 2 4 3 3 4 5 4 5 5 8 10 13 13 10 10 9 8 8 7 6 7 7 6 5 5 5 5 4 3 3 3 4 4 6 6 4 3 3 3 4 5 5 5 5 4 5 4 3
2 2 4 5 3 6 7 6 7 6 8 10 11 11 10 10 8 7 7 7 7 7 6 6 6 6 5 5 4 5 5 5 7 8 7 7 4 2 3 3 4 5 5 4 4 4 5 4 4
2 3 4 4 3 5 9 6 6 7 10 10 10 9 9 10 9 7 7 7 7 7 7 6 7 6 7 5 4 4 6 8 10 10 9 9 7 4 4 4 4 5 6 5 4 4 4 3 4
3 5 4 2 2 4 8 5 6 9 11 11 9 9 9 9 9 9 9 8 8 7 7 8 7 7 8 7 6 6 8 10 9 9 11 11 9 7 6 4 4 5 7 7 6 6 5 4 5
3 4 2 1 2 2 7 6 6 8 11 10 8 8 8 7 8 9 9 9 8 8 8 8 9 9 8 7 6 7 8 9 8 10 11 11 11 10 7 4 4 6 8 6 4 4 5 5 5
3 2 2 2 1 2 5 6 6 7 10 9 8 8 8 8 8 9 10 10 9 9 9 8 8 8 8 7 7 7 8 7 8 9 10 10 11 11 8 5 5 8 6 4 4 5 4 4 4
3 3 3 3 2 3 5 5 7 7 8 9 8 8 8 9 9 9 10 9 9 8 9 8 7 7 7 6 5 5 5 4 7 7 8 9 10 10 9 6 6 7 5 5 5 5 5 4 3
4 3 3 2 2 3 5 5 6 6 7 8 8 7 8 8 7 8 10 10 9 8 8 8 7 6 6 4 4 4 3 2 3 4 7 9 9 10 9 5 5 5 5 5 5 4 6 5 3
4 3 2 1 0 3 4 4 4 5 8 10 11 9 9 7 7 8 9 9 9 8 8 7 7 7 6 4 4 3 3 2 1 3 5 8 9 9 8 6 4 4 5 6 6 5 4 4 4
3 5 4 3 2 3 4 1 4 5 4 7 9 9 9 11 11 10 9 9 10 9 9 8 7 7 6 6 5 4 4 4 3 3 3 4 7 8 8 7 5 4 5 5 5 4 5 4 5
3 4 5 5 4 1 2 2 6 6 6 8 10 10 11 11 11 10 10 10 10 9 8 8 8 7 7 7 7 6 4 3 1 1 1 3 6 7 8 7 7 5 4 5 5 5 4 4 3
3 4 5 4 4 2 1 2 6 5 8 12 12 13 13 13 14 13 12 11 10 10 9 9 8 7 6 7 7 7 4 3 2 2 3 3 4 6 7 7 7 5 4 5 6 6 6 4 4
5 6 5 4 3 2 5 5 6 8 14 12 14 15 14 13 14 12 11 10 9 9 9 9 9 6 6 7 7 7 7 6 5 3 3 2 2 3 5 6 6 5 4 4 5 5 7 5 6
5 6 3 2 1 5 5 5 9 12 13 16 17 17 15 14 14 13 12 11 11 11 10 9 10 7 6 7 6 6 7 7 6 5 4 3 2 2 2 3 4 4 5 5 5 6 6 6 6
4 7 6 5 4 4 2 6 8 9 11 13 14 14 14 14 14 15 15 14 13 13 12 11 10 8 7 7 6 5 5 5 4 4 4 4 2 2 2 4 4 5 6 7 6 5 5 5 6
5 4 6 5 1 2 5 6 7 2 4 10 12 13 15 16 15 16 15 14 14 13 12 12 11 9 8 7 6 5 5 5 5 5 4 3 3 3 4 4 5 5 6 6 6 5 5 5 6
6 6 5 4 3 3 5 4 4 3 4 9 12 14 15 15 15 15 15 14 14 13 11 11 11 10 8 7 6 6 5 6 6 6 5 5 4 4 5 4 5 5 6 6 6 5 5 7 5
4 3 4 4 4 3 3 6 5 4 4 9 13 15 16 17 17 15 14 13 13 11 11 10 10 9 8 7 6 6 6 5 6 6 6 5 4 5 5 5 5 5 5 5 6 6 6 7 6
6 6 6 4 3 3 2 7 5 4 4 6 10 12 14 17 16 16 14 13 12 12 11 11 10 9 9 8 7 7 6 6 6 6 5 5 5 5 5 5 5 5 4 4 5 6 6 6 6
Wind_Direction
312 315 80 65 56 53 69 54 113 78 57 52 68 76 78 60 81 111 129 121 119 110 102 103 104 104 103 101 98 95 93 91 91 90 89 88 87 85 82 80 79 78 77 76 73 70 68 69 64
318 325 64 62 77 74 46 70 87 93 133 121 74 68 72 71 79 103 114 121 118 111 105 106 105 104 102 101 99 96 94 92 91 91 90 89 88 84 80 78 77 77 74 71 68 68 64 61 55
310 177 79 69 82 131 137 139 116 99 93 79 72 50 62 87 95 106 129 124 113 107 108 112 110 107 104 102 99 97 96 95 95 93 92 90 87 83 78 75 75 76 73 69 63 59 57 53 42
41 43 54 69 77 84 141 150 124 110 67 51 91 65 53 63 107 126 130 124 117 114 115 117 113 110 108 105 102 100 99 98 99 98 95 91 88 86 82 78 74 72 71 66 59 50 46 41 23
68 71 60 56 67 54 104 125 112 94 74 69 89 89 64 52 110 126 129 127 125 124 125 125 121 118 115 112 109 106 105 104 101 98 96 93 91 87 82 78 75 71 68 60 56 47 36 18 358
50 63 78 86 96 92 98 115 104 97 106 99 96 101 89 111 121 133 133 134 137 137 137 134 130 127 123 120 117 116 113 110 106 101 100 98 92 85 82 82 78 71 63 57 48 35 18 352 336
93 80 98 116 114 100 127 120 115 125 127 120 120 99 115 128 137 143 141 142 144 144 141 141 139 135 133 131 128 124 119 114 110 104 97 102 105 90 85 88 80 67 56 54 33 357 339 330 327
122 94 78 86 117 137 125 100 118 121 112 126 121 124 146 161 148 142 142 144 147 148 150 155 155 150 148 145 141 131 124 117 106 100 103 123 132 128 106 87 71 46 27 7 341 324 318 320 324
97 76 110 158 151 159 115 101 93 84 109 105 90 126 149 152 135 129 133 139 150 158 168 170 172 172 169 161 155 141 118 94 54 37 39 64 136 265 275 298 342 2 356 348 341 337 328 327 334
87 110 187 183 159 151 130 118 117 100 99 102 104 116 133 137 135 139 148 157 165 172 181 181 175 179 181 176 149 142 75 30 21 32 45 56 92 242 295 322 348 359 2 353 346 346 343 344 348
105 148 152 93 130 132 119 104 94 122 129 149 146 148 147 142 144 150 156 158 165 173 174 175 174 171 168 155 134 125 69 42 41 46 61 75 76 61 37 19 8 7 9 7 0 1 359 1 4
95 128 136 141 152 127 127 122 108 132 159 159 152 151 148 149 157 161 158 156 152 145 154 157 153 148 144 124 112 112 87 59 47 45 65 81 72 58 44 33 20 15 14 18 13 10 15 32 49
120 155 141 146 121 128 120 115 119 124 139 141 143 143 150 156 162 166 152 146 136 125 133 141 137 130 121 106 100 92 78 64 57 53 56 77 83 68 50 39 30 20 24 28 21 21 36 42 49
157 129 115 111 108 132 122 118 108 144 147 146 150 155 158 160 162 150 139 135 129 125 123 115 113 114 107 98 92 85 77 68 59 54 56 70 77 71 57 43 31 24 28 37 40 36 45 41 53
110 100 64 71 113 138 114 94 137 162 156 155 158 160 160 165 157 153 154 142 137 130 119 115 113 102 98 99 95 87 80 74 63 57 60 63 66 67 65 51 32 26 36 43 44 41 46 50 55
70 85 94 286 122 144 117 150 179 171 155 158 161 159 158 156 157 156 149 140 137 128 122 118 114 104 102 100 95 91 84 75 65 60 58 58 61 65 66 53 33 35 44 41 42 39 47 45 52
48 134 178 256 283 143 125 161 187 179 159 165 166 165 157 145 149 153 148 146 141 133 125 115 115 111 105 100 96 92 84 74 66 60 55 55 59 62 65 56 39 46 46 34 43 43 52 54 55
199 180 194 205 245 146 144 172 176 184 172 173 171 168 161 155 161 156 150 146 140 134 127 124 119 115 108 96 88 76 63 53 58 59 56 58 57 59 61 56 44 49 48 36 41 50 46 57 60
187 181 202 227 222 165 168 171 187 187 184 178 178 176 170 169 165 150 149 142 135 133 131 132 129 130 122 111 105 97 83 56 45 53 59 58 58 60 61 56 46 48 54 44 44 54 52 41 45
195 181 194 294 135 139 161 186 203 203 198 188 184 183 178 169 162 156 152 149 146 148 143 139 138 137 136 135 134 133 126 102 70 41 48 54 60 63 67 64 55 49 56 48 45 53 60 39 40
208 182 180 169 77 65 119 233 234 227 210 198 195 188 182 177 171 169 161 158 153 154 156 152 150 139 137 132 111 91 70 54 40 34 27 30 57 63 69 70 70 58 62 59 53 61 75 64 35
215 183 149 143 120 168 145 214 251 220 220 207 202 195 190 183 175 175 168 163 161 162 159 151 148 139 136 130 128 130 127 133 173 162 63 27 49 61 69 72 72 65 59 58 53 62 70 82 58
167 139 125 129 124 119 181 190 262 210 220 218 206 201 196 186 179 179 176 170 164 159 157 150 143 139 137 133 135 131 130 144 135 103 85 51 33 48 64 73 74 68 61 59 57 59 61 69 78
118 79 59 63 88 201 210 196 252 210 211 208 205 200 196 189 183 180 177 166 156 154 151 147 144 144 141 136 136 136 140 138 126 122 114 73 31 29 51 70 70 68 65 61 60 62 66 67 71
93 95 62 9 319 246 218 205 243 223 209 202 199 197 193 186 180 173 171 167 159 158 156 153 148 148 149 142 143 147 149 147 148 151 144 128 93 57 44 64 68 66 70 72 69 64 61 63 71
159 142 158 187 217 268 232 229 253 240 212 198 190 187 186 184 181 177 176 172 167 164 160 157 155 155 156 153 155 151 149 145 147 150 149 149 148 142 107 85 80 77 77 77 73 67 63 63 66
146 166 168 139 220 252 266 275 298 334 187 182 178 178 184 185 181 179 176 173 168 167 167 164 160 159 163 162 154 145 147 145 141 137 135 141 142 131 112 96 83 75 75 76 76 72 68 69 65
155 152 113 134 175 257 285 273 265 268 198 187 184 183 187 184 180 178 176 175 172 171 169 162 160 164 166 163 159 150 147 147 141 129 130 137 139 122 118 102 90 78 74 75 74 72 67 70 61
160 159 140 146 172 177 272 274 235 226 212 201 196 190 185 181 179 177 178 176 170 164 164 162 161 159 163 162 153 144 147 143 135 131 136 137 131 126 124 118 106 94 82 79 81 78 76 76 64
175 184 158 163 224 188 221 272 274 238 231 209 201 192 185 180 178 176 174 168 166 166 167 165 165 166 168 162 152 152 150 143 136 136 139 136 129 127 127 123 111 104 94 84 87 91 88 87 81
Height
1516 1515 1515 1515 1518 1526 1528 1524 1519 1519 1520 1521 1519 1520 1523 1527 1531 1538 1537 1536 1537 1537 1538 1538 1537 1537 1537 1537 1537 1537 1537 1537 1537 1537 1536 1536 1536 1536 1536 1536 1536 1536 1536 1537 1537 1537 1537 1538 1538
1516 1515 1516 1516 1523 1535 1532 1524 1522 1520 1521 1521 1521 1523 1525 1530 1532 1534 1536 1537 1538 1538 1538 1538 1538 1538 1538 1538 1538 1538 1538 1538 1537 1537 1537 1537 1537 1537 1536 1536 1536 1536 1536 1536 1537 1537 1537 1538 1538
1516 1515 1516 1518 1526 1532 1530 1524 1521 1521 1521 1520 1523 1526 1529 1532 1534 1535 1537 1539 1539 1539 1539 1539 1539 1539 1539 1539 1539 1539 1539 1538 1538 1538 1538 1537 1537 1537 1537 1536 1536 1536 1536 1536 1536 1537 1537 1537 1538
1516 1516 1517 1523 1527 1524 1522 1522 1521 1521 1522 1523 1524 1529 1532 1535 1536 1537 1539 1540 1540 1540 1540 1540 1540 1540 1540 1540 1540 1540 1539 1539 1539 1539 1539 1538 1538 1538 1537 1537 1536 1536 1536 1536 1536 1536 1536 1537 1538
1515 1516 1522 1528 1526 1523 1520 1520 1521 1521 1523 1526 1526 1532 1535 1538 1538 1539 1541 1542 1541 1541 1542 1542 1542 1542 1542 1541 1541 1541 1541 1541 1540 1540 1540 1540 1539 1539 1538 1537 1537 1536 1536 1536 1536 1536 1536 1537 1537
1516 1517 1529 1534 1528 1523 1522 1522 1522 1524 1527 1529 1530 1533 1538 1540 1540 1542 1543 1543 1543 1543 1543 1543 1544 1544 1543 1543 1543 1543 1542 1542 1542 1542 1541 1541 1540 1539 1539 1538 1537 1537 1536 1536 1536 1536 1536 1537 1537
1518 1522 1529 1530 1529 1526 1524 1523 1523 1525 1528 1530 1531 1534 1539 1541 1542 1543 1544 1545 1545 1545 1545 1545 1546 1546 1545 1545 1545 1545 1544 1544 1543 1543 1542 1542 1541 1541 1540 1539 1538 1537 1537 1537 1536 1536 1537 1537 1537
1517 1522 1527 1530 1530 1527 1524 1523 1525 1526 1528 1531 1532 1534 1538 1541 1543 1544 1545 1546 1547 1547 1547 1548 1548 1548 1547 1547 1547 1547 1546 1545 1545 1544 1544 1543 1542 1542 1541 1540 1539 1538 1538 1537 1537 1537 1537 1537 1537
1518 1526 1532 1529 1528 1526 1523 1524 1527 1528 1529 1531 1532 1534 1537 1541 1543 1545 1546 1547 1548 1549 1549 1550 1549 1549 1549 1549 1548 1548 1548 1547 1546 1546 1545 1544 1543 1543 1542 1541 1540 1539 1539 1538 1538 1537 1537 1538 1538
1518 1528 1527 1523 1523 1523 1524 1525 1527 1529 1531 1533 1534 1537 1539 1542 1544 1545 1546 1548 1549 1550 1550 1551 1551 1551 1551 1550 1550 1550 1549 1548 1547 1547 1546 1545 1544 1543 1543 1542 1541 1540 1540 1539 1539 1538 1538 1538 1538
1518 1523 1522 1521 1522 1522 1524 1525 1527 1529 1533 1533 1534 1537 1540 1543 1544 1546 1547 1548 1549 1550 1551 1552 1552 1552 1552 1552 1552 1551 1550 1550 1549 1548 1547 1546 1545 1544 1544 1543 1542 1541 1541 1540 1539 1539 1539 1539 1539
1519 1521 1520 1522 1523 1523 1524 1526 1528 1529 1531 1533 1535 1537 1540 1543 1545 1546 1548 1549 1550 1551 1552 1553 1553 1553 1553 1554 1553 1553 1552 1551 1550 1549 1548 1547 1546 1546 1545 1544 1543 1542 1541 1541 1540 1540 1540 1540 1540
1519 1521 1521 1522 1523 1523 1524 1527 1528 1531 1532 1535 1537 1539 1542 1544 1546 1548 1549 1550 1551 1552 1553 1553 1554 1554 1555 1555 1554 1554 1553 1552 1551 1550 1549 1549 1548 1547 1546 1545 1544 1543 1542 1542 1541 1541 1541 1541 1541
1519 1520 1521 1522 1523 1525 1526 1529 1530 1533 1534 1537 1539 1540 1542 1544 1546 1548 1550 1551 1552 1552 1553 1554 1555 1556 1556 1556 1556 1555 1554 1553 1552 1552 1551 1550 1549 1548 1547 1546 1545 1544 1543 1543 1542 1542 1542 1543 1543
1519 1521 1524 1524 1524 1526 1528 1533 1532 1533 1535 1537 1539 1541 1543 1544 1546 1548 1550 1551 1552 1553 1554 1555 1556 1556 1557 1557 1557 1556 1556 1555 1554 1553 1552 1551 1550 1549 1548 1547 1546 1545 1544 1544 1544 1543 1544 1544 1545
1520 1526 1532 1527 1525 1526 1531 1540 1534 1534 1535 1537 1539 1541 1543 1545 1547 1549 1551 1552 1553 1554 1555 1556 1557 1557 1558 1558 1558 1557 1557 1556 1555 1555 1554 1553 1552 1551 1550 1549 1547 1547 1546 1545 1545 1545 1545 1545 1546
1528 1535 1534 1530 1525 1525 1530 1536 1534 1534 1535 1536 1539 1541 1542 1544 1547 1549 1551 1552 1554 1555 1556 1557 1558 1558 1559 1559 1559 1558 1558 1557 1557 1556 1555 1555 1554 1553 1551 1550 1549 1548 1547 1547 1546 1546 1546 1547 1547
1534 1534 1533 1532 1526 1526 1530 1533 1532 1533 1535 1536 1538 1540 1542 1544 1546 1549 1551 1553 1554 1556 1557 1558 1559 1559 1560 1560 1560 1559 1559 1559 1558 1558 1557 1556 1555 1554 1553 1552 1551 1550 1549 1549 1548 1548 1548 1548 1549
1525 1529 1532 1530 1525 1527 1531 1532 1532 1532 1535 1536 1538 1540 1542 1544 1546 1549 1551 1553 1554 1556 1557 1558 1559 1560 1560 1561 1561 1560 1560 1560 1560 1559 1559 1558 1557 1556 1555 1554 1553 1552 1551 1550 1550 1550 1550 1550 1550
1525 1530 1532 1530 1525 1528 1532 1533 1531 1532 1532 1534 1536 1538 1541 1543 1546 1548 1550 1552 1554 1556 1557 1559 1559 1560 1561 1561 1562 1562 1561 1561 1561 1561 1560 1559 1559 1558 1557 1556 1555 1554 1553 1552 1552 1552 1551 1551 1552
1525 1528 1530 1531 1529 1529 1533 1538 1535 1531 1531 1533 1535 1537 1539 1541 1544 1547 1549 1551 1554 1556 1557 1559 1560 1561 1562 1562 1563 1563 1563 1563 1563 1562 1562 1561 1560 1560 1559 1558 1557 1556 1555 1554 1554 1553 1553 1553 1553
1527 1522 1524 1527 1535 1541 1538 1549 1537 1531 1530 1530 1532 1535 1537 1539 1542 1545 1547 1550 1552 1555 1557 1559 1560 1561 1562 1563 1563 1564 1564 1564 1564 1564 1563 1563 1562 1561 1560 1559 1559 1558 1557 1556 1556 1555 1555 1555 1555
1521 1519 1523 1527 1535 1541 1540 1547 1540 1531 1531 1527 1528 1530 1533 1536 1539 1542 1545 1548 1551 1554 1556 1558 1560 1561 1562 1563 1564 1564 1564 1565 1565 1565 1564 1564 1563 1563 1562 1561 1561 1560 1559 1559 1558 1558 1557 1557 1557
1516 1521 1527 1532 1539 1549 1540 1544 1540 1528 1521 1520 1522 1525 1528 1532 1536 1540 1544 1547 1550 1553 1555 1557 1559 1561 1562 1563 1564 1565 1565 1565 1565 1565 1565 1565 1565 1564 1564 1563 1563 1562 1561 1561 1560 1560 1559 1559 1559
1519 1534 1548 1550 1553 1550 1534 1537 1530 1511 1508 1510 1514 1519 1523 1528 1533 1537 1541 1545 1548 1551 1554 1556 1558 1560 1562 1563 1564 1565 1565 1566 1566 1566 1566 1566 1566 1565 1565 1565 1564 1564 1563 1563 1562 1562 1561 1561 1561
1522 1530 1548 1556 1556 1547 1534 1535 1517 1502 1501 1504 1509 1514 1519 1524 1529 1533 1537 1541 1545 1549 1552 1555 1557 1559 1561 1562 1564 1565 1566 1566 1567 1567 1567 1567 1567 1567 1566 1566 1566 1565 1565 1564 1564 1564 1563 1563 1563
1522 1528 1529 1540 1542 1546 1539 1525 1509 1499 1499 1503 1507 1512 1516 1520 1525 1529 1534 1539 1543 1546 1550 1553 1556 1558 1560 1562 1563 1564 1565 1566 1567 1567 1568 1568 1568 1568 1568 1568 1567 1567 1567 1566 1566 1565 1565 1565 1564
1515 1520 1532 1540 1548 1551 1539 1528 1521 1506 1503 1503 1505 1508 1512 1517 1521 1526 1531 1535 1540 1544 1548 1551 1554 1557 1559 1561 1563 1564 1565 1566 1567 1567 1568 1569 1569 1569 1569 1569 1569 1568 1568 1568 1567 1567 1567 1566 1566
1518 1521 1526 1536 1540 1546 1546 1531 1504 1502 1500 1500 1501 1504 1507 1512 1518 1523 1528 1533 1537 1542 1546 1549 1553 1555 1558 1560 1562 1563 1565 1566 1567 1568 1568 1569 1569 1570 1570 1570 1570 1569 1569 1569 1569 1569 1568 1568 1568
1511 1516 1523 1536 1537 1536 1539 1528 1496 1496 1496 1496 1498 1501 1504 1509 1514 1519 1524 1530 1535 1539 1543 1547 1550 1553 1556 1558 1560 1562 1564 1565 1566 1567 1568 1569 1570 1570 1571 1571 1571 1571 1571 1571 1570 1570 1570 1569 1569